EW7868 Weather Reports


Display with metric or nautical units.
time (UTC)temp
F
wind
direction
speed
MPH
gust
MPH
rain 1hr
in
rain 24hr
in
rain mn
in
humidity
%
barometer
mb
20260508012705 57 195 0.0 7.0 0.00 0.00 0.00 57 1008.5
20260508012201 57 205 3.0 5.0 0.00 0.00 0.00 54 1008.5
20260508011659 58 106 2.0 3.0 0.00 0.00 0.00 53 1008.6
20260508011156 58 208 2.0 7.0 0.00 0.00 0.00 52 1008.3
20260508010653 58 234 0.0 5.0 0.00 0.00 0.00 52 1008.0
20260508010151 58 202 6.0 6.0 0.00 0.00 0.00 52 1008.4
20260508005648 58 0 0.0 3.0 0.00 0.00 0.00 52 1008.1
20260508005144 58 32 0.0 3.0 0.00 0.00 0.00 52 1008.2
20260508004640 57 203 0.0 2.0 0.00 0.00 0.00 56 1008.3
20260508004137 57 206 0.0 2.0 0.00 0.00 0.00 56 1008.1
20260508003633 58 246 0.0 1.0 0.00 0.00 0.00 58 1008.4
20260508003131 59 99 0.0 0.0 0.00 0.00 0.00 56 1008.1
20260508002627 60 99 0.0 2.0 0.00 0.00 0.00 54 1008.2
20260508002125 61 82 0.0 2.0 0.00 0.00 0.00 52 1008.4
20260508001620 63 36 2.0 4.0 0.00 0.00 0.00 46 1008.1
20260508001116 63 251 2.0 5.0 0.00 0.00 0.00 44 1008.2
20260508000612 63 32 5.0 6.0 0.00 0.00 0.00 44 1008.2
20260508000110 64 290 0.0 9.0 0.00 0.00 0.00 44 1008.0
20260507235607 63 106 2.0 6.0 0.00 0.00 0.00 45 1008.0
20260507235104 63 294 2.0 8.0 0.00 0.00 0.00 44 1008.0
20260507234600 63 0 1.0 9.0 0.00 0.00 0.00 45 1008.2
20260507234057 62 25 3.0 6.0 0.00 0.00 0.00 44 1008.0
20260507233554 62 0 1.0 10.0 0.00 0.00 0.00 46 1008.3
20260507233053 62 301 4.0 16.0 0.00 0.00 0.00 47 1008.0
20260507232548 63 322 2.0 10.0 0.00 0.00 0.00 45 1007.9
20260507232046 64 259 0.0 11.0 0.00 0.00 0.00 45 1008.1
20260507231542 64 93 3.0 8.0 0.00 0.00 0.00 45 1008.0
20260507231039 63 205 4.0 12.0 0.00 0.00 0.00 47 1008.0
20260507230536 62 233 6.0 12.0 0.00 0.00 0.00 48 1008.1
20260507230033 63 211 6.0 16.0 0.00 0.00 0.00 46 1007.9
20260507225527 64 70 7.0 13.0 0.00 0.00 0.00 44 1008.3
20260507225024 64 223 6.0 9.0 0.00 0.00 0.00 44 1008.2
20260507224520 65 329 0.0 12.0 0.00 0.00 0.00 46 1008.4
20260507224017 65 273 3.0 5.0 0.00 0.00 0.00 47 1008.3
20260507223513 64 252 3.0 7.0 0.00 0.00 0.00 47 1008.2
20260507223010 65 189 0.0 9.0 0.00 0.00 0.00 48 1008.3
20260507222507 64 184 6.0 9.0 0.00 0.00 0.00 50 1008.2
20260507222003 65 297 0.0 7.0 0.00 0.00 0.00 51 1008.5
20260507221500 64 180 1.0 13.0 0.00 0.00 0.00 50 1008.5
20260507220956 64 346 2.0 8.0 0.00 0.00 0.00 52 1008.4
20260507220454 64 264 2.0 8.0 0.00 0.00 0.00 50 1008.6
20260507215950 64 346 3.0 6.0 0.00 0.00 0.00 54 1008.3
20260507215447 64 335 4.0 6.0 0.00 0.00 0.00 53 1008.8
20260507214944 63 3 3.0 8.0 0.00 0.00 0.00 53 1008.8
20260507214442 62 52 3.0 7.0 0.00 0.00 0.00 55 1009.0
20260507213937 62 187 5.0 13.0 0.00 0.00 0.00 55 1009.0
20260507213434 62 74 0.0 9.0 0.00 0.00 0.00 57 1008.8
20260507212931 62 63 1.0 9.0 0.00 0.00 0.00 59 1008.8
20260507212427 62 199 4.0 9.0 0.00 0.00 0.00 57 1009.0
20260507211924 62 209 5.0 14.0 0.00 0.00 0.00 58 1009.0
20260507211421 61 184 2.0 12.0 0.00 0.00 0.00 56 1009.1
20260507210917 63 254 9.0 9.0 0.00 0.00 0.00 55 1009.1
20260507210414 61 250 2.0 9.0 0.00 0.00 0.00 59 1009.4
20260507205911 60 220 5.0 10.0 0.00 0.00 0.00 59 1009.6
20260507205408 61 111 0.0 10.0 0.00 0.00 0.00 58 1009.8
20260507204904 61 250 6.0 12.0 0.00 0.00 0.00 57 1009.6
20260507204401 61 331 2.0 14.0 0.00 0.00 0.00 57 1009.7
20260507203858 61 202 4.0 8.0 0.00 0.00 0.00 57 1009.7
20260507203356 61 205 6.0 14.0 0.00 0.00 0.00 59 1009.5
20260507202852 60 202 5.0 18.0 0.00 0.00 0.00 61 1009.8
20260507202349 59 180 3.0 11.0 0.00 0.00 0.00 64 1009.7
20260507201844 58 157 0.0 12.0 0.00 0.00 0.00 61 1009.8
20260507201340 57 309 5.0 9.0 0.00 0.00 0.00 64 1010.0
20260507200837 58 187 5.0 12.0 0.00 0.00 0.00 64 1010.0
20260507200333 58 207 4.0 15.0 0.00 0.00 0.00 63 1010.2
20260507195829 58 196 6.0 12.0 0.00 0.00 0.00 64 1010.3
20260507195326 58 289 5.0 11.0 0.00 0.00 0.00 63 1010.4
20260507194824 56 266 3.0 10.0 0.00 0.00 0.00 68 1010.6
20260507194320 55 186 4.0 12.0 0.00 0.00 0.00 67 1010.6
20260507193816 55 37 3.0 6.0 0.00 0.00 0.00 67 1010.5
20260507193314 56 246 5.0 11.0 0.00 0.00 0.00 67 1011.0
20260507192809 55 203 3.0 15.0 0.00 0.00 0.00 68 1011.0
20260507192307 54 229 7.0 7.0 0.00 0.00 0.00 68 1011.1
20260507191803 54 248 2.0 10.0 0.00 0.00 0.00 69 1011.4
20260507191259 54 197 5.0 13.0 0.00 0.00 0.00 72 1011.1
20260507190756 53 198 11.0 20.0 0.00 0.00 0.00 70 1011.6
20260507190255 53 135 2.0 11.0 0.00 0.00 0.00 72 1011.4
20260507185753 52 205 3.0 9.0 0.00 0.00 0.00 75 1011.6
20260507185249 51 199 11.0 12.0 0.00 0.00 0.00 74 1011.5
20260507184747 52 185 1.0 7.0 0.00 0.00 0.00 71 1011.5
20260507184245 52 90 1.0 10.0 0.00 0.00 0.00 68 1011.5
20260507183741 53 277 0.0 8.0 0.00 0.00 0.00 68 1011.5
20260507183238 53 260 5.0 12.0 0.00 0.00 0.00 67 1011.9
20260507182736 53 186 5.0 15.0 0.00 0.00 0.00 65 1011.5
20260507182230 54 94 2.0 11.0 0.00 0.00 0.00 63 1011.8
20260507181728 55 63 3.0 11.0 0.00 0.00 0.00 61 1011.8
20260507181224 55 200 1.0 12.0 0.00 0.00 0.00 62 1011.6
20260507180720 56 197 5.0 18.0 0.00 0.00 0.00 59 1011.5
20260507180217 56 186 6.0 19.0 0.00 0.00 0.00 57 1011.6
20260507175713 57 198 9.0 17.0 0.00 0.00 0.00 54 1011.5
20260507175210 58 236 2.0 14.0 0.00 0.00 0.00 51 1011.7
20260507174708 58 206 10.0 16.0 0.00 0.00 0.00 49 1011.7
20260507174205 59 263 1.0 9.0 0.00 0.00 0.00 51 1011.8
20260507173703 57 200 3.0 9.0 0.00 0.00 0.00 49 1011.7
20260507173159 57 234 0.0 7.0 0.00 0.00 0.00 48 1011.9
20260507172656 57 210 9.0 12.0 0.00 0.00 0.00 48 1011.9
20260507172153 57 97 5.0 11.0 0.00 0.00 0.00 47 1011.9
20260507171653 57 109 1.0 13.0 0.00 0.00 0.00 48 1011.9
20260507171150 58 199 10.0 10.0 0.00 0.00 0.00 44 1011.7
20260507170647 58 286 2.0 9.0 0.00 0.00 0.00 43 1011.9
20260507170144 59 82 5.0 8.0 0.00 0.00 0.00 45 1011.9
20260507165640 59 185 3.0 9.0 0.00 0.00 0.00 43 1011.9
20260507165136 60 7 1.0 8.0 0.00 0.00 0.00 44 1012.1
20260507164632 59 199 3.0 11.0 0.00 0.00 0.00 44 1012.1
20260507164129 59 183 0.0 8.0 0.00 0.00 0.00 44 1012.0
20260507163627 60 254 1.0 4.0 0.00 0.00 0.00 45 1012.1
20260507163124 59 180 0.0 10.0 0.00 0.00 0.00 45 1012.0
20260507162620 59 215 1.0 7.0 0.00 0.00 0.00 47 1012.4
20260507162117 58 188 4.0 10.0 0.00 0.00 0.00 46 1012.5
20260507161613 58 212 0.0 5.0 0.00 0.00 0.00 45 1012.4
20260507161110 59 240 2.0 12.0 0.00 0.00 0.00 46 1012.5
20260507160606 59 200 3.0 7.0 0.00 0.00 0.00 46 1012.6
20260507155557 58 353 0.0 10.0 0.00 0.00 0.00 47 1012.7
20260507155055 59 238 3.0 5.0 0.00 0.00 0.00 46 1012.6
20260507154552 57 194 3.0 8.0 0.00 0.00 0.00 47 1012.7
20260507154049 57 192 9.0 10.0 0.00 0.00 0.00 47 1012.9
20260507153545 56 180 4.0 10.0 0.00 0.00 0.00 49 1012.9
20260507153042 56 219 6.0 7.0 0.00 0.00 0.00 51 1013.0
20260507152538 56 197 7.0 9.0 0.00 0.00 0.00 50 1012.8
20260507152034 55 198 8.0 9.0 0.00 0.00 0.00 49 1013.2
20260507151530 55 191 2.0 9.0 0.00 0.00 0.00 48 1013.3
20260507151028 55 251 1.0 5.0 0.00 0.00 0.00 51 1013.3
20260507150525 55 205 4.0 8.0 0.00 0.00 0.00 54 1013.2
20260507150021 54 190 3.0 7.0 0.00 0.00 0.00 51 1013.3
20260507145516 53 182 3.0 7.0 0.00 0.00 0.00 52 1013.4
20260507145014 53 192 0.0 11.0 0.00 0.00 0.00 53 1013.6
20260507144510 53 194 3.0 6.0 0.00 0.00 0.00 52 1013.7
20260507144008 53 189 3.0 8.0 0.00 0.00 0.00 52 1013.5
20260507143505 52 198 2.0 8.0 0.00 0.00 0.00 54 1013.8
20260507143002 52 195 6.0 7.0 0.00 0.00 0.00 54 1013.7
20260507142458 53 189 0.0 6.0 0.00 0.00 0.00 51 1013.9
20260507141955 52 190 3.0 5.0 0.00 0.00 0.00 53 1014.0
20260507141450 52 0 0.0 6.0 0.00 0.00 0.00 55 1014.1
20260507140948 50 195 3.0 7.0 0.00 0.00 0.00 57 1013.7
20260507140444 51 195 4.0 5.0 0.00 0.00 0.00 59 1013.9
20260507135942 50 186 0.0 7.0 0.00 0.00 0.00 59 1014.1
20260507135438 50 191 2.0 6.0 0.00 0.00 0.00 56 1014.1
20260507134936 50 186 3.0 6.0 0.00 0.00 0.00 59 1014.4
20260507134432 51 189 5.0 6.0 0.00 0.00 0.00 57 1014.1
20260507133928 51 192 2.0 7.0 0.00 0.00 0.00 60 1014.3
20260507133425 50 192 4.0 6.0 0.00 0.00 0.00 60 1014.0
20260507132923 50 195 2.0 4.0 0.00 0.00 0.00 58 1014.1
20260507132419 50 189 4.0 6.0 0.00 0.00 0.00 57 1014.2
20260507131916 50 197 3.0 5.0 0.00 0.00 0.00 61 1014.4
20260507131413 51 243 0.0 3.0 0.00 0.00 0.00 62 1014.6
20260507130910 50 82 1.0 4.0 0.00 0.00 0.00 64 1014.5
20260507130407 49 199 3.0 4.0 0.00 0.00 0.00 66 1014.7
20260507125906 49 203 2.0 4.0 0.00 0.00 0.00 66 1014.5
20260507125403 50 195 0.0 3.0 0.00 0.00 0.00 66 1014.5
20260507124900 48 188 2.0 3.0 0.00 0.00 0.00 70 1014.5
20260507124355 49 82 0.0 3.0 0.00 0.00 0.00 74 1014.3
20260507123855 47 194 2.0 3.0 0.00 0.00 0.00 75 1014.3
20260507123351 47 185 0.0 3.0 0.00 0.00 0.00 74 1014.2
20260507122848 46 197 2.0 3.0 0.00 0.00 0.00 75 1014.2
20260507122343 47 186 3.0 3.0 0.00 0.00 0.00 78 1013.8
20260507121840 48 180 0.0 2.0 0.00 0.00 0.00 75 1013.8
20260507121335 45 192 2.0 2.0 0.00 0.00 0.00 78 1013.8
20260507120832 45 180 1.0 2.0 0.00 0.00 0.00 77 1014.2
20260507120328 45 200 1.0 2.0 0.00 0.00 0.00 75 1013.8
20260507115825 44 180 0.0 1.0 0.00 0.00 0.00 76 1013.8
20260507115320 43 175 2.0 2.0 0.00 0.00 0.00 77 1013.8
20260507114816 43 180 0.0 1.0 0.00 0.00 0.00 79 1013.8
20260507114314 42 174 0.0 0.0 0.00 0.00 0.00 88 1013.6
20260507113811 40 174 0.0 1.0 0.00 0.00 0.00 90 1013.7
20260507113308 38 165 0.0 0.0 0.00 0.00 0.00 91 1013.9
20260507112806 36 173 0.0 0.0 0.00 0.00 0.00 90 1013.8
20260507112306 35 173 0.0 0.0 0.00 0.00 0.00 89 1014.0
20260507111800 35 157 0.0 1.0 0.00 0.00 0.00 89 1013.8
20260507111256 34 173 0.0 0.0 0.00 0.00 0.00 88 1013.7
20260507110752 34 173 0.0 0.0 0.00 0.00 0.00 88 1013.9
20260507110249 33 173 0.0 0.0 0.00 0.00 0.00 88 1013.7
20260507105746 34 173 0.0 0.0 0.00 0.00 0.00 88 1014.0
20260507105242 33 173 0.0 0.0 0.00 0.00 0.00 87 1013.9
20260507104740 33 173 0.0 0.0 0.00 0.00 0.00 87 1013.8
20260507104236 33 173 0.0 0.0 0.00 0.00 0.00 88 1013.9
20260507103732 33 173 0.0 1.0 0.00 0.00 0.00 88 1013.8
20260507103228 32 98 0.0 0.0 0.00 0.00 0.00 86 1013.8
20260507102725 32 98 0.0 0.0 0.00 0.00 0.00 86 1013.7
20260507102221 32 98 0.0 0.0 0.00 0.00 0.00 85 1013.9
20260507101718 32 98 0.0 0.0 0.00 0.00 0.00 84 1013.9
20260507101213 33 98 0.0 0.0 0.00 0.00 0.00 84 1014.2
20260507100710 33 98 0.0 0.0 0.00 0.00 0.00 84 1013.9
20260507100209 33 98 0.0 0.0 0.00 0.00 0.00 84 1014.0
20260507095707 34 98 0.0 0.0 0.00 0.00 0.00 83 1014.1
20260507095203 34 98 0.0 0.0 0.00 0.00 0.00 83 1014.0
20260507094659 34 98 0.0 0.0 0.00 0.00 0.00 82 1013.6
20260507094156 35 98 0.0 0.0 0.00 0.00 0.00 82 1014.0
20260507093653 36 106 0.0 1.0 0.00 0.00 0.00 81 1014.0
20260507093152 36 90 0.0 1.0 0.00 0.00 0.00 78 1014.2
20260507092649 37 180 0.0 1.0 0.00 0.00 0.00 77 1014.1
20260507092145 37 180 0.0 2.0 0.00 0.00 0.00 76 1014.1
20260507091642 37 165 0.0 2.0 0.00 0.00 0.00 75 1014.0
20260507091138 36 175 0.0 2.0 0.00 0.00 0.00 77 1014.0
20260507090633 36 106 0.0 1.0 0.00 0.00 0.00 78 1014.3
20260507090131 36 97 0.0 1.0 0.00 0.00 0.00 78 1014.2
20260507085628 36 165 0.0 0.0 0.00 0.00 0.00 77 1014.4
20260507085125 36 173 0.0 1.0 0.00 0.00 0.00 77 1014.5
20260507084621 36 157 0.0 0.0 0.00 0.00 0.00 77 1014.1
20260507084118 36 157 0.0 0.0 0.00 0.00 0.00 76 1014.0
20260507083615 37 157 0.0 0.0 0.00 0.00 0.00 76 1014.1
20260507083112 37 157 0.0 1.0 0.00 0.00 0.00 75 1014.1
20260507082608 37 180 0.0 0.0 0.00 0.00 0.00 75 1014.0
20260507082104 37 180 0.0 0.0 0.00 0.00 0.00 74 1014.0
20260507081601 37 98 0.0 0.0 0.00 0.00 0.00 74 1014.2
20260507081058 38 98 0.0 1.0 0.00 0.00 0.00 74 1013.8
20260507080553 38 90 0.0 1.0 0.00 0.00 0.00 74 1014.0
20260507080050 38 203 0.0 1.0 0.00 0.00 0.00 74 1014.2
20260507075545 38 103 1.0 1.0 0.00 0.00 0.00 74 1014.1
20260507075042 38 71 0.0 2.0 0.00 0.00 0.00 73 1014.1
20260507074539 38 185 0.0 2.0 0.00 0.00 0.00 73 1014.1
20260507074037 38 90 0.0 1.0 0.00 0.00 0.00 73 1014.1
20260507073533 38 98 0.0 1.0 0.00 0.00 0.00 73 1013.9
20260507073030 38 66 0.0 1.0 0.00 0.00 0.00 72 1014.0
20260507072527 39 165 0.0 0.0 0.00 0.00 0.00 72 1014.0
20260507072024 39 75 0.0 0.0 0.00 0.00 0.00 71 1014.0
20260507071522 39 82 0.0 1.0 0.00 0.00 0.00 71 1013.8
20260507071018 39 96 0.0 2.0 0.00 0.00 0.00 71 1014.1
20260507070515 39 117 0.0 2.0 0.00 0.00 0.00 71 1014.3
20260507070013 39 69 0.0 1.0 0.00 0.00 0.00 71 1014.1
20260507065508 39 344 0.0 2.0 0.00 0.00 0.00 71 1014.2
20260507065006 39 35 0.0 2.0 0.00 0.00 0.00 72 1014.1
20260507064504 39 77 0.0 1.0 0.00 0.00 0.00 72 1014.4
20260507064002 39 105 0.0 1.0 0.00 0.00 0.00 71 1014.3
20260507063458 39 77 0.0 2.0 0.00 0.00 0.00 71 1014.4
20260507062956 39 60 0.0 1.0 0.00 0.00 0.00 71 1014.4
20260507062452 39 20 0.0 2.0 0.00 0.00 0.00 71 1014.1
20260507061950 39 82 0.0 0.0 0.00 0.00 0.00 70 1014.4
20260507061448 39 90 0.0 1.0 0.00 0.00 0.00 70 1014.3
20260507060946 39 97 0.0 0.0 0.00 0.00 0.00 70 1014.3
20260507060442 39 57 0.0 1.0 0.00 0.00 0.00 70 1014.1
20260507055939 39 67 2.0 2.0 0.00 0.00 0.00 71 1014.4
20260507055434 39 69 0.0 1.0 0.00 0.00 0.00 72 1014.4
20260507054931 39 29 0.0 0.0 0.00 0.00 0.00 72 1014.3
20260507054427 39 29 0.0 1.0 0.00 0.00 0.00 71 1014.4
20260507053925 39 74 0.0 0.0 0.00 0.00 0.00 71 1014.5
20260507053422 39 74 0.0 0.0 0.00 0.00 0.00 70 1014.3
20260507052921 40 74 0.0 0.0 0.00 0.00 0.00 70 1014.3
20260507052418 39 74 0.0 0.0 0.00 0.00 0.00 71 1014.2
20260507051915 39 74 0.0 0.0 0.00 0.00 0.00 70 1014.3
20260507051413 39 74 0.0 0.0 0.00 0.00 0.00 70 1014.2
20260507050909 39 74 0.0 0.0 0.00 0.00 0.00 70 1014.4
20260507050406 39 74 0.0 0.0 0.00 0.00 0.00 71 1014.5
20260507045902 39 192 0.0 0.0 0.00 0.00 0.00 71 1014.2
20260507045359 39 74 0.0 0.0 0.00 0.00 0.00 71 1014.3
20260507044856 39 41 0.0 1.0 0.00 0.00 0.00 71 1014.4
20260507044353 40 41 0.0 0.0 0.00 0.00 0.00 70 1014.4
20260507043849 40 41 0.0 0.0 0.00 0.00 0.00 69 1014.4
20260507043346 41 41 0.0 0.0 0.00 0.00 0.00 68 1014.4
20260507042842 40 15 0.0 0.0 0.00 0.00 0.00 69 1014.2
20260507042338 40 15 0.0 0.0 0.00 0.00 0.00 69 1014.2
20260507041835 41 15 0.0 0.0 0.00 0.00 0.00 69 1014.2
20260507041331 41 23 0.0 0.0 0.00 0.00 0.00 68 1014.3
20260507040829 41 345 0.0 0.0 0.00 0.00 0.00 68 1014.4
20260507040324 41 345 0.0 2.0 0.00 0.00 0.00 67 1014.6
20260507035821 41 0 0.0 0.0 0.00 0.00 0.00 68 1014.2
20260507035316 41 0 0.0 0.0 0.00 0.00 0.00 68 1014.2
20260507034814 40 0 0.0 0.0 0.00 0.00 0.00 69 1014.4
20260507034311 40 0 0.0 0.0 0.00 0.00 0.00 69 1014.5
20260507033809 40 0 0.0 0.0 0.00 0.00 0.00 70 1014.5
20260507033306 40 0 0.0 0.0 0.00 0.00 0.00 70 1014.3
20260507032803 40 0 0.0 0.0 0.00 0.00 0.00 69 1014.4
20260507032259 41 0 0.0 0.0 0.00 0.00 0.00 69 1014.5
20260507031756 41 0 0.0 0.0 0.00 0.00 0.00 69 1014.6
20260507031253 41 53 0.0 0.0 0.00 0.00 0.00 69 1014.4
20260507030749 41 173 0.0 0.0 0.00 0.00 0.00 68 1014.3
20260507030247 41 173 0.0 0.0 0.00 0.00 0.00 68 1014.3
20260507025744 41 270 0.0 0.0 0.00 0.00 0.00 67 1014.4
20260507025241 42 57 0.0 0.0 0.00 0.00 0.00 67 1014.4
20260507024739 42 57 0.0 0.0 0.00 0.00 0.00 66 1014.1
20260507024236 43 57 0.0 0.0 0.00 0.00 0.00 64 1014.0
20260507023731 44 32 0.0 1.0 0.00 0.00 0.00 63 1014.1
20260507023229 44 75 0.0 0.0 0.00 0.00 0.00 62 1013.8
20260507022726 44 69 0.0 0.0 0.00 0.00 0.00 61 1013.7
20260507022222 45 29 0.0 1.0 0.00 0.00 0.00 61 1013.8
20260507021718 45 21 0.0 2.0 0.00 0.00 0.00 60 1013.9
20260507021214 46 180 0.0 1.0 0.00 0.00 0.00 58 1013.7
20260507020713 46 285 0.0 2.0 0.00 0.00 0.00 57 1013.7
20260507020208 46 241 2.0 4.0 0.00 0.00 0.00 56 1013.7
20260507015706 47 90 0.0 3.0 0.00 0.00 0.00 56 1013.6
20260507015203 47 10 2.0 3.0 0.00 0.00 0.00 56 1013.7
20260507014700 47 294 0.0 3.0 0.00 0.00 0.00 55 1013.4
20260507014156 48 7 1.0 4.0 0.00 0.00 0.00 54 1013.3
20260507013653 48 45 0.0 3.0 0.00 0.00 0.00 54 1013.4
20260507013150 48 20 0.0 5.0 0.00 0.00 0.00 54 1013.5